DateTimeUTC,F1_A11,F1_S11,BsB_S11,BsG_S11,BsR_S11,BbsB_S11,BbsG_S11,BbsR_S11,BaB_A11,BaG_A11,BaR_A11,Tu_S11,T_S11,Uu_S11,U_S11,P_S11,T1_A11
2021-05-28T09:00:00Z,00000200,20000000,,,,,,,-000.09,0000.18,-000.02,17.7,24.3,11.4,07.6,0674.7,30.8
2021-05-28T09:01:00Z,00000200,20000000,,,,,,,0000.39,0000.06,0000.19,17.7,24.3,11.4,07.6,0674.7,30.8
2021-05-28T09:02:00Z,00000200,20000000,,,,,,,-000.07,0000.08,0000.16,17.7,24.3,11.2,07.4,0674.7,30.8
2021-05-28T09:03:00Z,00000200,60000000,,,,,,,0000.09,0000.20,-000.03,17.7,24.3,11.1,07.4,0674.7,30.8
2021-05-28T09:04:00Z,00000200,40000000,0000.71,0000.57,0000.84,0000.70,0000.13,0000.15,0000.30,0000.01,0000.20,17.8,24.1,11.2,07.6,0675.5,30.8
2021-05-28T09:05:00Z,00000200,00000000,0000.70,0000.13,0000.48,0000.20,0000.25,0000.37,0000.44,0000.36,0000.26,17.9,24.0,11.1,07.6,0675.5,30.8
2021-05-28T09:06:00Z,00000200,00000000,0001.31,0000.52,0000.20,0000.19,0000.07,0000.21,0000.22,0000.28,0000.16,17.9,24.0,11.2,07.7,0675.6,30.8
2021-05-28T09:07:00Z,00000200,00000000,0000.23,0000.41,0000.43,0000.12,0000.14,0000.15,-000.02,0000.26,0000.27,17.9,24.0,11.2,07.7,0675.5,30.8
2021-05-28T09:08:00Z,00000200,00000000,0000.85,0000.62,0000.01,0000.37,0000.03,-000.05,0000.81,0000.26,0000.13,17.9,24.0,11.3,07.7,0675.4,30.8
2021-05-28T09:09:00Z,00000200,00000000,0000.99,0000.70,0000.29,0000.18,0000.31,0000.11,0000.15,0000.32,0000.05,17.9,24.0,11.2,07.7,0675.6,30.8
2021-05-28T09:10:00Z,00000200,00000000,-000.01,-000.12,0000.46,0000.10,0000.23,0000.18,-000.04,0000.16,0000.28,17.9,24.0,11.2,07.7,0675.5,30.8
2021-05-28T09:11:00Z,00000200,00000000,0000.16,0000.15,0000.05,-000.36,-000.23,-000.06,0000.36,0000.14,0000.21,17.9,24.0,11.2,07.7,0675.5,30.8
2021-05-28T09:12:00Z,00000200,00000000,0000.25,0000.56,0000.22,0000.52,-000.05,0000.24,0000.43,0000.41,0000.12,17.9,24.0,11.3,07.8,0675.5,30.8
2021-05-28T09:13:00Z,00000200,00000000,-000.00,-000.09,0000.22,0000.12,-000.00,0000.08,0000.24,0000.59,0000.13,17.9,24.0,11.3,07.7,0675.5,30.8
2021-05-28T09:14:00Z,00000200,00000000,0000.63,0000.14,0000.06,0000.62,-000.09,0000.04,-000.00,-000.08,0000.21,17.9,24.0,11.3,07.7,0675.5,30.8
2021-05-28T09:15:00Z,00000200,00000000,0000.58,0000.04,0000.32,0000.04,-000.08,0000.34,0000.57,0000.26,0000.18,17.9,24.0,11.2,07.7,0675.4,30.8
2021-05-28T09:16:00Z,00000200,00000000,0000.31,0000.48,0000.23,0000.33,0000.01,0000.33,-000.16,0000.10,0000.26,17.9,24.0,11.2,07.7,0675.4,30.8
2021-05-28T09:17:00Z,00000200,00000000,0000.31,0000.35,0000.18,0000.40,0000.10,0000.30,0000.14,0000.22,0000.10,17.9,24.0,11.3,07.7,0675.4,30.8
2021-05-28T09:18:00Z,00000200,00000000,0000.67,0000.04,0000.34,0000.85,0000.24,0000.40,0000.40,0000.55,0000.23,17.9,24.0,11.3,07.7,0675.4,30.8
2021-05-28T09:19:00Z,00000200,00000000,0000.44,0000.10,-000.16,0000.24,-000.20,0000.17,0000.02,-000.17,-000.13,17.9,24.0,11.2,07.7,0675.4,30.8
2021-05-28T09:20:00Z,00000200,00000000,0000.21,0000.33,0000.32,0000.30,0000.05,0000.19,0000.19,0000.06,0000.23,17.9,24.0,11.2,07.7,0675.5,30.8
2021-05-28T09:21:00Z,00000200,00000000,0000.55,0000.06,0000.05,0000.10,-000.03,0000.07,0000.45,0000.19,0000.05,17.9,24.0,11.2,07.7,0675.6,30.8
2021-05-28T09:22:00Z,00000200,00000000,0000.02,0000.18,0000.00,0000.53,0000.14,0000.16,0000.12,0000.37,0000.35,17.9,24.0,11.2,07.7,0675.5,30.8
2021-05-28T09:23:00Z,00000200,00000000,0000.29,0000.29,0000.23,0000.06,0000.05,0000.12,0000.13,0000.17,0000.14,17.9,24.0,11.2,07.7,0675.6,30.8
2021-05-28T09:24:00Z,00000200,00000000,0000.57,0000.21,0000.35,-000.17,-000.05,0000.38,0000.36,-000.10,0000.35,17.9,24.0,11.1,07.6,0675.5,30.8
2021-05-28T09:25:00Z,00000200,00000000,0000.43,-000.07,0000.34,0000.42,-000.09,0000.09,0000.02,0000.32,-000.09,17.9,24.0,11.1,07.6,0675.5,30.8
2021-05-28T09:26:00Z,00000200,00000000,0000.95,0000.31,0000.31,0000.30,0000.01,-000.21,0000.28,0000.32,0000.28,17.9,24.0,11.2,07.7,0675.5,30.8
2021-05-28T09:27:00Z,00000200,00000000,0000.40,0000.09,0000.42,0000.17,0000.04,-000.02,0000.18,0000.12,0000.22,17.9,24.0,11.1,07.6,0675.5,30.8
2021-05-28T09:28:00Z,00000200,00000000,0000.78,0000.05,0000.42,0000.08,0000.33,0000.02,0000.09,0000.16,-000.12,17.9,24.0,11.1,07.6,0675.5,30.8
2021-05-28T09:29:00Z,00000200,00000000,0000.54,0000.19,0000.27,0000.33,0000.06,0000.25,0000.19,-000.02,0000.17,17.9,24.0,11.0,07.6,0675.5,30.8
2021-05-28T09:30:00Z,00000200,00000000,0000.14,0000.15,0000.49,0000.31,0000.16,0000.10,0000.08,0000.27,0000.16,17.9,24.0,11.1,07.6,0675.5,30.8
2021-05-28T09:31:00Z,00000200,00000000,-000.45,0000.19,0000.41,0000.23,0000.03,0000.12,0000.52,0000.10,-000.02,17.9,24.0,11.1,07.6,0675.6,30.8
2021-05-28T09:32:00Z,00000200,00000000,0000.42,0000.47,0000.08,-000.03,0000.18,0000.44,0000.18,0000.14,0000.21,17.9,24.0,11.0,07.5,0675.4,30.8
2021-05-28T09:33:00Z,00000200,00000000,0000.09,0000.08,0000.09,0000.34,-000.09,-000.04,0000.21,-000.03,0000.25,17.9,24.0,10.9,07.5,0675.4,30.8
2021-05-28T09:34:00Z,00000200,00000000,0000.16,0000.26,0000.33,0000.68,0000.05,0000.42,0000.21,0000.21,-000.15,17.9,24.0,10.9,07.5,0675.5,30.8
2021-05-28T09:35:00Z,00000200,00000000,0000.06,0000.13,-000.22,0000.23,0000.10,0000.19,-000.19,0000.17,0000.27,17.9,24.0,10.9,07.5,0675.5,30.8
2021-05-28T09:36:00Z,00000200,00000000,-000.30,0000.06,0000.02,-000.06,0000.10,0000.06,0000.13,0000.25,0000.19,17.9,24.0,10.9,07.5,0675.5,30.8
2021-05-28T09:37:00Z,00000200,00000000,0000.06,-000.07,0000.24,-000.09,-000.06,0000.23,0000.50,0000.44,-000.03,17.9,24.0,10.8,07.4,0675.5,30.8
2021-05-28T09:38:00Z,00000200,00000000,0000.10,0000.05,0000.46,-000.20,0000.25,0000.36,0000.24,0000.09,0000.08,17.9,24.0,10.8,07.4,0675.6,30.8
2021-05-28T09:39:00Z,00000200,00000000,0000.03,0000.37,0000.16,0001.02,0000.37,0000.15,-000.02,-000.00,-000.10,17.9,24.0,10.7,07.4,0675.5,30.8
2021-05-28T09:40:00Z,00000200,00000000,0000.88,0000.33,0000.05,0000.47,-000.03,0000.09,0000.04,-000.13,0000.41,17.9,24.0,10.7,07.4,0675.5,30.8
2021-05-28T09:41:00Z,00000200,00000000,0000.16,0000.36,0000.28,-000.04,-000.04,-000.13,0000.49,0000.35,0000.07,17.9,24.0,10.7,07.4,0675.6,30.8
2021-05-28T09:42:00Z,00000200,00000000,0000.96,0000.22,0000.24,0000.10,0000.10,0000.20,-000.20,-000.18,0000.32,17.9,24.0,10.6,07.3,0675.7,30.8
2021-05-28T09:43:00Z,00000200,00000000,0000.83,0000.20,0000.07,-000.00,0000.17,0000.04,0000.31,0000.28,-000.21,17.9,24.0,10.5,07.3,0675.6,30.8
2021-05-28T09:44:00Z,00000200,00000000,0000.24,0000.05,0000.26,-000.43,0000.00,0000.10,0000.23,0000.48,0000.30,17.9,24.0,10.5,07.3,0675.6,30.8
2021-05-28T09:45:00Z,00000200,00000000,0000.52,0000.18,0000.18,-000.09,0000.09,0000.24,0000.06,-000.14,0000.12,17.9,24.0,10.5,07.3,0675.6,30.8
2021-05-28T09:46:00Z,00000200,00000000,0001.12,0000.11,0000.07,0000.38,0000.29,0000.16,0000.71,0000.59,0000.13,17.9,24.0,10.5,07.2,0675.6,30.8
2021-05-28T09:47:00Z,00000200,00000000,0000.68,0000.11,0000.33,0000.31,0000.00,-000.14,-000.24,-000.10,0000.09,17.9,24.0,10.4,07.2,0675.6,30.8
2021-05-28T09:48:00Z,00000200,00000000,-000.05,0000.28,0000.16,0000.04,-000.02,0000.05,0000.39,0000.12,0000.12,17.9,24.0,10.4,07.2,0675.6,30.8
2021-05-28T09:49:00Z,00000200,00000000,0000.17,0000.02,0000.12,-000.09,-000.07,0000.00,-000.21,-000.08,-000.49,17.9,24.0,10.3,07.1,0675.6,30.8
2021-05-28T09:50:00Z,00000200,00000000,0000.14,0000.19,0000.33,0000.34,0000.11,0000.35,0000.61,0000.42,0000.91,17.9,24.0,10.4,07.2,0675.6,30.8
2021-05-28T09:51:00Z,00000200,00000000,0000.28,0000.09,0000.22,0000.12,-000.23,0000.14,-000.04,0000.43,0000.01,17.9,24.0,10.4,07.1,0675.6,30.8
2021-05-28T09:52:00Z,00000200,00000000,0000.35,0000.22,0000.16,0000.10,-000.07,-000.00,0000.30,-000.08,-000.28,17.9,24.0,10.3,07.1,0675.6,30.8
2021-05-28T09:53:00Z,00000200,00000000,0000.13,0000.17,0000.13,-000.19,0000.22,-000.00,-000.33,-000.09,0000.22,17.9,24.0,10.3,07.1,0675.5,30.8
2021-05-28T09:54:00Z,00000200,00000000,0000.05,-000.01,0000.39,0000.70,0000.19,0000.09,0000.54,0000.40,0000.21,17.9,24.0,10.2,07.0,0675.6,30.8
2021-05-28T09:55:00Z,00000200,00000000,0000.60,-000.02,0000.09,0000.52,0000.18,0000.02,-000.02,0000.06,-000.20,18.0,24.0,10.3,07.1,0675.5,30.8
2021-05-28T09:56:00Z,00000200,00000000,0000.74,-000.07,0000.12,0000.40,0000.03,0000.17,0000.33,0000.25,0000.58,18.0,24.0,10.3,07.1,0675.5,30.8
2021-05-28T09:57:00Z,00000200,40000000,,,,,,,0000.19,0000.29,-000.06,18.0,24.1,10.5,07.2,0675.4,30.8
2021-05-28T09:58:00Z,00000200,60000000,,,,,,,0000.11,0000.03,0000.13,17.8,24.2,10.2,06.8,0674.5,30.8
2021-05-28T09:59:00Z,00000200,20000000,,,,,,,-000.12,0000.08,-000.02,17.8,24.3,10.1,06.8,0674.5,30.8
